"Pseudo-MPEC" for C5R1VV2

Created 2021 Jun 13 4:07:15 UT using Find_Orb

Click here for an explanation of pseudo-MPECs

 
 Astrometry: 
     C5R1VV2  C2021 06 10.30048016 34 37.66 +33 10 28.6    ~6A7q 21.97GVNEOCPG96
     C5R1VV2  C2021 06 10.30568416 34 36.30 +33 10 43.3    ~6A7q 21.76GVNEOCPG96
     C5R1VV2  C2021 06 10.31088616 34 34.83 +33 10 56.1    ~6A7q 21.85GVNEOCPG96
     C5R1VV2  C2021 06 10.31609516 34 33.44 +33 11 09.4    ~6A7q 21.48GVNEOCPG96
     C5R1VV2 KC2021 06 10.43092616 34 02.45 +33 16 07.2    ~6AAq       VNEOCPG96
     C5R1VV2 KC2021 06 10.43214416 34 02.13 +33 16 09.7    ~6AAq       VNEOCPG96
     C5R1VV2 KC2021 06 10.43336116 34 01.80 +33 16 12.6    ~6AAq 21.92GVNEOCPG96
     C5R1VV2 1C2021 06 10rmi#P(/It_.^9T@RsAstrometryXYQrLTYP@cHhR%r54A/n[=,tLZ84
     C5R1VV2 1C2021 06 10LL^BYTN+Z\d1#redacted;'3kY9cH'+WP@O6nU=t'=XJPfx5FZy1Z84
     C5R1VV2 1C2021 06 107E(98lbsQsIq:?WW99Nq=X7oclickm]here)loALnI?,o[for%U)Z84
     C5R1VV2 KC2021 06 11K1explanationCjiT)(\Ty:En-)wSRYBx`kZ?FiHqECSy%i.$)SrH21
     C5R1VV2 KC2021 06 11j6Jwhh0Bd/(0CHVfJ'fJwdWwiG+nP8@uOjLq3]:QlB;iDqUoSusPH21
     C5R1VV2 KC2021 06 12.24824116 25 43.39 +34 36 32.6    ~6C6M 21.38GVNEOCPV06
     C5R1VV2 KC2021 06 12.24932116 25 43.09 +34 36 35.0    ~6C6M 20.90GVNEOCPV06
     C5R1VV2 KC2021 06 12.25148416 25 42.45 +34 36 40.9    ~6C6M 21.75GVNEOCPV06

Station data:
(G96) Mt. Lemmon Survey  (N32.442754 W110.788720)  US/Arizona.  Observers T.
   A. Pruyne, B. M. Africano, E. J. Christensen, G. A. Farneth, D. C. Fuls,
   A. R. Gibbs, A. D. Grauer, H. Gröller, J. A. Johnson, R. A. Kowalski, S.
   M. Larson, G. J. Leonard, D. Rankin, R. L. Seaman, F. C. Shelly. 1.5-m
   reflector + 10K CCD.
(H21) Astronomical Research Observatory, Westfield  (N39.483057 W87.968270)
   US/Illinois. 0.76-m f/3.0 astrograph + CCD.
(V06) Catalina Sky Survey-Kuiper  (N32.416847 W110.732550)  US/Arizona.
   Observers T. A. Pruyne, B. M. Africano, E. J. Christensen, G. A. Farneth,
   D. C. Fuls, A. R. Gibbs, A. D. Grauer, H. Gröller, J. A. Johnson, R. A.
   Kowalski, S. M. Larson, G. J. Leonard, D. Rankin, R. L. Seaman, F. C.
   Shelly. 1.55-m reflector + CCD.
(Z84) Calar Alto-Schmidt  (N37.224049 W2.548210)  Spain.  Observer E. Schwab.
   Measurers E. Schwab, D. Koschny, M. Micheli. 0.8-m f/3 Schmidt + CCD.

Orbital elements:  C5R1VV2
   Perihelion 2021 Aug 24.319799 +/- 0.473168 TT =  7:40:30 (JD 2459450.819799)
Epoch 2021 Jun 12.0 TT = JDT 2459377.5   Earth MOID: 0.0812   Ve: 0.0230
M 315.80647461 +/- 1.3189011        (J2000 ecliptic)          AutoNEOCP
n   0.60275022 +/- 0.0139424        Peri.  244.88665 +/- 0.0459581
a   1.38796270 +/- 0.0213355        Node   125.05949 +/- 0.1660256
e   0.5809630 +/- 0.0106191         Incl.   15.98862 +/- 0.2328739
P   1.64/597.25d           H 22.3   G  0.15   U  9.9  
q 0.58160772 +/- 0.00575117    Q 2.19431768 +/- 0.0476634
From 15 observations 2021 June 10-12 (46.8 hr); mean residual 0".28
Residuals in arcseconds: 
210610 G96  .03-  .19-    210610 G96  .01+  .23-    210611 H21  .12+  .08-    
210610 G96  .58+  .88+    210610 G96  .04-  .46-    210611 H21  .14+  .08-    
210610 G96  .19-  .07+    210610 Z84  .14-  .37-    210612 V06  .27-  .33+    
210610 G96  .07+  .25-    210610 Z84  .11-  .16+    210612 V06  .07+  .16-    
210610 G96  .06-  .39+    210610 Z84  .33-  .15+    210612 V06  .26+  .06-    

Ephemerides (geocentric):
Date (UTC) HH   RA              Dec         delta   r     elong  mag " sig PA
---- -- -- --  -------------   -----------  ------ ------ -----  --- ---- ---
2021 06 13 04  16 21 08.679   +35 17 29.32  .29561 1.1895 119.5 21.8 .557 174
2021 06 13 05  16 20 55.865   +35 19 21.13  .29533 1.1891 119.5 21.8 .587 173
2021 06 13 06  16 20 43.020   +35 21 12.96  .29504 1.1887 119.4 21.8 .618 172
2021 06 13 07  16 20 30.143   +35 23 04.82  .29475 1.1883 119.4 21.8 .649 171
2021 06 13 08  16 20 17.233   +35 24 56.69  .29447 1.1879 119.3 21.8 .682 171
2021 06 13 09  16 20 04.291   +35 26 48.59  .29418 1.1875 119.3 21.8 .715 170
2021 06 13 10  16 19 51.317   +35 28 40.50  .29389 1.1871 119.2 21.8 .748 169
2021 06 13 11  16 19 38.311   +35 30 32.44  .29361 1.1867 119.2 21.8 .783 169
2021 06 13 12  16 19 25.272   +35 32 24.40  .29332 1.1863 119.1 21.8 .818 168
2021 06 13 13  16 19 12.200   +35 34 16.38  .29303 1.1859 119.0 21.8 .853 168
2021 06 13 14  16 18 59.096   +35 36 08.38  .29275 1.1855 119.0 21.8 .890 167
2021 06 13 15  16 18 45.959   +35 38 00.40  .29246 1.1851 118.9 21.8 .927 167
2021 06 13 16  16 18 32.789   +35 39 52.44  .29218 1.1847 118.9 21.8 .965 166
2021 06 13 17  16 18 19.586   +35 41 44.50  .29190 1.1843 118.8 21.8 1.00 166
2021 06 13 18  16 18 06.350   +35 43 36.58  .29161 1.1839 118.8 21.8 1.04 166
2021 06 13 19  16 17 53.081   +35 45 28.67  .29133 1.1835 118.7 21.8 1.08 165
2021 06 13 20  16 17 39.779   +35 47 20.78  .29104 1.1831 118.7 21.8 1.12 165
2021 06 13 21  16 17 26.443   +35 49 12.92  .29076 1.1827 118.6 21.8 1.17 164
2021 06 13 22  16 17 13.074   +35 51 05.06  .29048 1.1823 118.5 21.8 1.21 164
2021 06 13 23  16 16 59.672   +35 52 57.23  .29019 1.1819 118.5 21.8 1.25 164
2021 06 14 00  16 16 46.236   +35 54 49.41  .28991 1.1815 118.4 21.8 1.29 163
2021 06 14 01  16 16 32.766   +35 56 41.61  .28963 1.1811 118.4 21.8 1.34 163
2021 06 14 02  16 16 19.263   +35 58 33.82  .28935 1.1807 118.3 21.8 1.38 163
2021 06 14 03  16 16 05.726   +36 00 26.05  .28906 1.1803 118.3 21.8 1.43 162
2021 06 14 04  16 15 52.155   +36 02 18.30  .28878 1.1799 118.2 21.8 1.48 162
2021 06 14 05  16 15 38.549   +36 04 10.56  .28850 1.1795 118.1 21.8 1.52 162
2021 06 14 06  16 15 24.910   +36 06 02.83  .28822 1.1791 118.1 21.8 1.57 161
2021 06 14 07  16 15 11.237   +36 07 55.12  .28794 1.1787 118.0 21.8 1.62 161
2021 06 14 08  16 14 57.529   +36 09 47.42  .28766 1.1783 118.0 21.8 1.67 161
2021 06 14 09  16 14 43.787   +36 11 39.73  .28738 1.1779 117.9 21.8 1.72 161
2021 06 14 10  16 14 30.010   +36 13 32.06  .28710 1.1775 117.8 21.8 1.77 160
2021 06 14 11  16 14 16.199   +36 15 24.40  .28682 1.1771 117.8 21.8 1.82 160
2021 06 14 12  16 14 02.353   +36 17 16.75  .28654 1.1767 117.7 21.7 1.87 160
2021 06 14 13  16 13 48.472   +36 19 09.12  .28626 1.1763 117.7 21.7 1.92 160
2021 06 14 14  16 13 34.556   +36 21 01.49  .28598 1.1759 117.6 21.7 1.98 159
2021 06 14 15  16 13 20.606   +36 22 53.88  .28570 1.1755 117.5 21.7 2.03 159
2021 06 14 16  16 13 06.620   +36 24 46.28  .28542 1.1751 117.5 21.7 2.09 159
2021 06 14 17  16 12 52.599   +36 26 38.68  .28515 1.1747 117.4 21.7 2.14 159
2021 06 14 18  16 12 38.543   +36 28 31.10  .28487 1.1743 117.4 21.7 2.20 159
2021 06 14 19  16 12 24.452   +36 30 23.52  .28459 1.1739 117.3 21.7 2.26 158
2021 06 14 20  16 12 10.325   +36 32 15.96  .28431 1.1735 117.2 21.7 2.31 158
2021 06 14 21  16 11 56.162   +36 34 08.40  .28404 1.1731 117.2 21.7 2.37 158
2021 06 14 22  16 11 41.964   +36 36 00.85  .28376 1.1727 117.1 21.7 2.43 158
2021 06 14 23  16 11 27.731   +36 37 53.31  .28348 1.1723 117.1 21.7 2.49 158
2021 06 15 00  16 11 13.461   +36 39 45.78  .28321 1.1719 117.0 21.7 2.55 157
2021 06 15 01  16 10 59.156   +36 41 38.25  .28293 1.1715 116.9 21.7 2.61 157
2021 06 15 02  16 10 44.814   +36 43 30.73  .28266 1.1711 116.9 21.7 2.67 157
2021 06 15 03  16 10 30.436   +36 45 23.21  .28238 1.1707 116.8 21.7 2.74 157